Weather in Annapolis

United States     38°58′41″N   76°29′34″W
temp.,
°C
wind,
m/s
gust,
m/s
humid.,
%
clouds,
%
prec.,
mm/h
press.,
hPa
HPBL,
m
22 june, tue
tue2223:00+23wnw3792100 0.9 1006181
02:00+22w2687100 0.9 1005174
05:00+21w239493 0.3 100667
08:00+21nw249384 2.3 1007169
11:00+19nnw61094100 3.3 1009569
14:00+18nnw5894100 13.5 1010568
17:00+18nw41085100 1.4 1011707
20:00+19nw4868100 1.5 1014808
23 june, wed
wed2323:00+17nnw3461100 0.0 1016133
02:00+15nnw3467100 0.0 1018146
05:00+14n23670 0.0 1020164
08:00+16n23590 0.0 1023355
11:00+20nne33420 0.0 10241155
14:00+21e33380 0.0 10241233
17:00+22e33370 0.0 10241019
20:00+20e11540 0.0 102520
24 june, thu
thu2423:00+18se345813 0.0 1026104
02:00+16sse23720 0.0 1026108
05:00+15ne11735 0.0 102698
08:00+18ene23639 0.0 1028293
11:00+21ene34504 0.0 1028758
14:00+24ene34420 0.0 1026895
17:00+24e35420 0.0 1024830
20:00+22e34722 0.0 102599
25 june, fri
fri2523:00+19e46920 0.0 1025225
02:00+18ene249559 0.0 1024157
05:00+19nnw2293100 0.1 1025133
08:00+20nne1189100 0.1 1025223
11:00+23s237695 0.0 1025658
14:00+24sse346992 0.1 1024855
17:00+25sse456689 0.0 1022694
20:00+23sse5118314 0.0 1022309
26 june, sat
sat2623:00+23sse612906 0.1 1021358
02:00+22s41291100 0.3 1022353
05:00+21s4109696 0.0 1021309
08:00+23s51087100 0.0 1022447
11:00+26s5874100 0.2 1022865
14:00+29s575869 0.4 10211289
17:00+26s61271100 0.0 1019350
20:00+25s71479100 0.0 1019471